Tracking 35237 objects as of 5-Sep-2026
HD Live streaming from Space Station
objects crossing your sky now

ARIANE 3 DEB

Track ARIANE 3 DEB now!


NORAD ID: 48348
Int'l Code: 1984-081H
Launch date: August 4, 1984
Source: France (FR)
Launch site: FRENCH GUIANA (FRGUI)

Note: This is SATELLITE DEBRIS
Your satellite tracking list
Your tracking list is empty




NASA's NSSDC Master Catalog

Two Line Element Set (TLE):
1 48348U 84081H   26247.39222520 -.00000264  00000-0  00000+0 0  9996
2 48348   7.0247 216.7729 7164784 257.1669  20.7405  2.08333405 97873
Source of the keplerian elements: AFSPC